Theta_e
356 356 356 355 354 352 347 340 338 340 341 342 343 342 342 341 339 338 338 339 341 343 344 344 343 341 341 342 344 344 343 341 336 329 324 320 318 316 316 318 319 321 325 327 328 329 330 333 335 335 333 332 331 331 332 331 330 330 327 325 328 331 332 332 331 329 329 327 326 326 326 326 326 326 327 328 328 329 330 330 330 330 328 326 326
357 356 356 356 355 352 348 341 338 340 341 342 342 342 342 341 340 339 337 338 342 343 344 344 344 343 343 344 344 345 344 343 340 335 328 323 320 318 316 317 318 321 323 325 326 327 328 331 333 334 332 330 329 330 330 328 326 324 324 325 329 332 332 332 332 331 329 328 327 327 326 326 326 327 327 327 328 328 327 328 329 330 329 328 327
357 356 356 356 355 353 349 343 340 341 342 341 341 341 341 342 340 338 337 337 340 343 344 345 345 345 345 345 345 346 345 344 342 340 334 327 322 321 318 318 320 322 323 325 325 325 326 327 327 328 326 324 323 323 324 325 324 324 323 325 329 332 333 332 332 331 330 328 327 327 327 327 328 328 327 327 326 325 324 324 325 327 327 327 326
357 356 356 355 356 355 351 346 342 341 341 341 340 340 341 341 341 339 336 336 338 341 344 345 346 346 346 345 346 346 345 344 343 342 339 332 326 322 321 321 322 324 324 325 326 325 324 324 323 323 323 323 321 320 322 326 327 326 325 326 328 331 332 332 331 331 330 329 328 328 328 328 329 329 329 328 327 326 323 322 323 324 324 325 326
358 357 356 356 356 355 352 348 345 343 341 339 339 340 340 341 341 339 335 334 336 340 343 344 344 344 343 343 344 345 345 344 343 342 340 336 329 324 323 322 323 324 323 324 325 325 323 323 323 325 326 325 322 321 324 328 328 326 327 330 330 329 330 330 331 331 332 331 329 328 329 330 329 330 330 330 329 328 325 323 322 323 325 326 326
358 358 357 356 356 355 353 350 347 343 340 339 339 340 340 341 341 339 336 333 334 338 341 340 339 338 338 339 341 343 344 344 343 342 341 339 333 327 324 323 323 323 322 323 324 323 323 323 324 325 326 324 322 325 329 331 328 326 329 332 332 330 329 330 331 331 332 331 330 329 330 330 331 331 331 330 330 329 327 325 323 323 325 327 326
358 358 358 357 355 354 351 349 345 342 339 338 339 339 340 340 340 339 336 334 333 336 338 337 336 336 336 338 340 342 344 344 344 343 342 341 337 331 326 324 323 323 322 323 325 325 325 324 324 326 326 324 323 326 330 331 329 328 330 333 333 332 331 330 330 329 330 330 329 328 329 330 330 331 331 331 331 329 327 326 325 323 324 326 326
358 358 359 359 356 352 348 345 344 341 338 338 340 340 339 339 339 339 338 336 333 334 336 337 339 339 339 340 342 344 346 346 346 345 344 342 339 334 329 325 324 324 323 324 329 331 330 327 326 328 327 325 325 326 328 329 330 330 332 333 333 333 332 329 328 328 329 328 327 328 330 330 330 331 330 330 330 329 327 326 326 324 323 325 326
359 359 360 360 357 352 347 346 345 343 341 341 342 341 340 340 340 341 340 338 336 337 340 342 344 344 344 345 346 347 348 348 347 346 345 343 341 338 333 328 326 325 323 324 329 333 332 329 330 330 329 328 326 324 325 327 330 331 332 333 333 334 331 327 325 327 328 328 328 330 331 331 331 331 330 330 329 328 326 326 325 324 324 325 325
359 360 360 360 358 353 349 348 348 345 343 342 341 342 342 342 343 344 343 342 342 344 346 346 346 346 348 348 349 350 350 350 349 348 346 345 343 341 336 330 327 325 324 325 330 332 332 334 331 327 328 330 326 322 323 327 331 332 332 333 333 332 330 328 327 327 328 329 329 328 328 328 329 330 329 329 328 327 326 325 325 325 325 325 325
357 358 359 359 358 356 353 351 349 347 344 343 343 345 346 346 347 348 348 348 349 350 351 351 349 349 349 351 352 352 352 351 351 350 348 347 345 342 338 334 330 327 327 330 334 334 335 336 329 321 325 328 322 319 322 325 328 330 330 331 331 331 330 329 329 328 329 329 327 325 324 324 326 328 329 328 327 326 326 325 325 325 325 325 324
355 356 358 357 356 356 354 353 351 349 347 347 348 349 350 351 351 351 351 352 353 353 354 354 353 352 352 353 354 354 354 354 352 351 350 349 347 343 339 336 333 330 329 332 336 336 336 334 325 319 322 322 317 318 321 321 323 326 329 330 330 329 329 329 328 327 327 328 327 325 322 322 326 327 326 327 327 326 326 326 325 325 324 324 323
354 354 355 355 355 354 354 354 353 351 351 350 351 353 354 355 354 354 354 354 354 355 356 356 355 355 354 355 355 355 355 354 353 352 351 349 348 344 340 336 335 332 332 335 337 337 333 328 321 317 317 317 318 321 322 322 326 328 330 330 329 328 328 328 327 327 327 328 328 325 323 325 328 326 324 326 327 327 326 326 325 325 324 324 322
353 353 353 353 353 352 353 354 354 354 353 354 355 355 356 357 357 355 355 355 355 355 356 357 357 356 355 355 355 354 354 353 352 351 350 349 348 345 341 338 336 334 335 337 338 335 329 323 319 317 315 317 321 323 324 328 330 330 329 328 326 325 326 327 327 326 326 327 329 328 327 327 328 326 325 327 327 326 326 325 325 324 323 322 319
352 352 352 352 352 352 352 353 354 356 356 357 358 358 357 358 358 357 357 356 356 356 356 356 357 356 355 355 354 354 354 353 352 351 351 350 348 346 343 339 336 334 335 336 336 332 327 322 319 318 318 321 323 324 326 328 328 327 325 325 324 324 326 327 327 325 326 327 329 329 328 326 325 325 326 326 326 326 326 325 324 323 321 319 318
350 351 351 351 351 352 352 353 356 358 359 360 361 361 359 359 359 358 358 357 357 356 355 356 355 355 355 355 355 355 354 352 352 351 350 350 349 347 345 341 337 335 335 336 335 332 327 323 320 319 321 323 324 324 326 325 324 323 323 324 325 325 326 328 328 326 327 328 328 328 327 325 325 326 326 325 325 326 326 324 322 320 319 319 319
349 349 350 351 351 352 353 355 358 360 361 362 363 362 361 360 359 359 359 358 357 356 356 356 355 355 355 356 355 354 353 352 351 350 350 350 349 347 345 341 339 337 336 338 337 332 327 324 322 322 323 324 323 323 324 323 322 322 322 324 325 325 326 328 329 328 328 328 328 326 325 325 325 326 326 326 325 324 323 320 319 319 319 319 319
348 347 348 350 350 352 354 356 359 361 361 362 363 364 363 362 361 360 359 359 358 357 357 356 355 355 354 354 353 352 351 350 348 348 349 349 348 347 345 342 339 337 337 337 334 328 325 325 325 325 324 324 323 323 323 323 322 321 321 323 325 325 326 327 328 329 328 326 325 323 323 324 325 326 326 325 324 322 319 318 319 319 319 319 319
347 346 347 349 350 352 354 358 361 361 362 363 364 364 364 364 363 362 361 360 359 358 357 355 354 355 354 353 352 351 349 348 347 346 347 348 348 346 344 342 339 336 335 334 330 325 324 326 327 325 324 323 324 324 323 322 321 320 320 323 326 326 326 325 326 325 323 321 320 320 320 321 322 323 323 321 320 319 319 320 319 319 319 319 320
349 346 348 350 352 353 356 359 362 363 363 364 365 365 365 364 364 363 362 360 358 356 355 354 354 355 353 352 351 350 349 348 347 346 347 347 346 345 344 342 338 335 333 331 327 324 322 323 324 323 323 324 324 322 321 320 320 320 322 326 326 324 323 323 323 322 320 318 318 318 318 318 319 319 318 318 318 319 320 320 319 319 318 318 318
354 349 350 353 355 357 359 361 364 365 365 365 366 366 365 364 364 362 359 355 353 353 352 352 353 353 352 351 350 349 348 347 346 346 346 345 344 343 342 341 338 336 332 328 324 322 320 321 323 324 324 324 322 321 319 319 321 323 325 326 324 322 323 323 322 320 319 318 318 318 318 318 318 317 317 318 319 319 319 318 318 318 318 317 317
359 355 355 357 359 361 363 366 368 367 366 367 367 366 365 364 361 356 351 348 348 349 350 350 351 351 350 349 348 347 345 345 344 344 343 342 341 340 340 340 337 333 329 324 322 321 322 323 324 324 324 323 321 319 320 322 325 326 325 323 321 321 322 322 320 319 318 318 318 318 318 317 317 318 319 319 319 318 318 318 318 318 317 317 316
363 361 362 363 364 365 367 368 368 368 367 367 366 365 363 359 351 346 343 343 345 347 347 348 348 347 347 345 344 343 343 342 342 341 340 339 339 339 338 336 332 328 324 322 322 322 323 324 324 324 324 322 321 323 325 327 326 324 321 320 320 319 319 319 318 318 318 317 317 317 317 317 318 319 319 319 318 318 318 317 314 312 311 310 309
366 366 366 367 368 368 369 369 368 368 367 365 364 363 357 348 343 342 342 340 340 343 344 345 345 344 343 342 340 340 340 340 339 338 337 336 335 335 333 330 327 324 322 322 322 323 324 324 324 324 324 324 326 327 327 324 322 320 320 320 319 318 318 317 317 317 316 317 317 317 317 317 317 317 317 317 316 316 314 310 307 306 307 306 305
369 369 369 370 370 369 369 368 367 366 364 363 361 356 346 340 340 341 340 338 338 341 343 344 343 343 341 340 339 339 339 337 336 335 334 333 332 330 328 326 324 323 323 323 323 323 323 323 324 325 326 328 329 326 322 320 320 320 320 319 318 318 317 317 317 316 316 316 316 316 316 316 316 315 315 314 313 314 311 306 304 307 308 307 307
371 370 370 370 368 367 366 364 362 361 359 357 352 343 334 333 336 337 337 338 340 342 344 343 342 341 340 340 339 338 337 335 334 333 332 332 330 328 326 325 324 323 323 323 322 322 322 322 323 326 329 330 326 321 320 321 321 320 319 318 318 318 318 317 317 317 316 316 316 316 316 316 316 316 315 314 314 313 310 305 305 308 309 307 307
371 370 369 367 365 364 363 359 357 356 354 349 344 341 340 339 337 336 336 338 342 344 344 342 340 339 339 338 337 336 335 335 334 333 332 331 330 328 327 326 325 324 323 322 322 321 321 322 325 328 330 327 322 320 321 321 320 319 319 319 319 318 318 318 317 317 317 317 317 317 317 317 317 316 315 315 314 312 307 305 306 308 308 307 308
368 366 364 363 362 361 359 355 354 354 353 350 348 348 348 345 342 341 340 341 342 342 340 338 337 337 336 334 334 335 335 335 335 333 333 331 329 327 326 325 324 323 322 321 321 321 322 326 329 329 326 322 321 322 322 321 320 320 319 318 318 318 318 317 317 318 318 318 318 318 318 318 317 316 315 314 312 308 305 305 306 307 307 308 308
361 358 358 359 359 358 357 356 355 353 352 351 350 349 348 346 345 344 342 341 340 338 337 335 335 335 334 333 334 336 335 335 334 334 332 330 327 325 324 323 322 321 321 321 322 325 328 330 328 324 321 321 323 323 321 321 321 320 319 319 319 318 318 318 318 319 318 317 317 317 317 317 316 315 313 310 307 306 305 306 306 307 307 308 308
357 355 356 358 358 357 357 356 354 351 349 348 347 346 346 344 343 341 339 338 337 336 336 335 334 334 334 334 334 335 333 330 330 330 330 328 325 323 322 322 322 322 324 326 328 331 331 328 323 320 322 323 323 322 322 322 321 321 320 319 318 318 318 318 318 318 317 316 316 315 315 315 313 311 309 307 307 307 306 306 307 307 307 307 308
358 357 356 357 357 357 355 354 352 351 349 345 342 341 340 339 338 338 337 337 337 336 336 336 336 335 334 333 333 333 331 328 327 328 328 327 326 325 323 323 325 327 329 331 331 331 328 324 321 322 324 324 323 323 322 322 321 321 321 319 318 318 318 318 318 318 317 315 315 315 314 312 310 308 307 307 307 307 306 307 307 307 307 307 308
356 356 355 355 355 354 352 350 349 347 344 340 338 337 335 334 336 338 338 338 337 337 336 337 338 337 336 335 334 333 331 330 330 330 329 329 329 327 326 326 328 330 331 331 330 327 324 322 322 323 324 324 324 323 322 322 321 321 320 319 318 317 317 317 318 317 316 315 315 314 313 310 307 307 307 307 307 307 307 307 307 307 307 307 307
353 353 352 353 352 349 346 344 341 338 337 337 337 336 334 333 335 338 338 338 338 337 337 338 338 337 336 335 335 334 333 332 330 330 329 328 328 328 328 328 328 329 329 328 326 324 322 321 322 323 324 325 324 322 322 322 321 320 319 318 317 317 317 317 316 316 315 315 314 314 313 309 306 305 306 306 307 307 307 307 306 306 306 306 307
349 348 347 346 345 342 339 337 336 335 336 337 337 337 335 334 334 336 338 338 338 338 337 338 337 336 335 335 334 334 333 331 329 328 328 328 328 328 328 328 328 328 327 324 323 323 323 322 322 323 324 324 323 322 321 320 320 319 319 318 317 317 317 316 316 315 315 314 313 314 312 307 303 302 305 307 307 307 307 306 306 306 306 306 306
344 342 341 340 338 337 336 336 335 336 337 338 338 337 336 335 334 336 337 337 337 337 337 336 336 336 335 334 332 329 328 328 327 328 328 328 328 327 328 328 328 327 325 323 323 323 323 321 321 323 323 323 323 322 320 319 319 319 318 318 317 316 316 315 315 315 314 314 314 313 309 303 301 304 307 307 307 307 306 306 305 305 306 306 306
341 341 341 341 340 339 338 337 337 337 337 338 338 337 337 336 335 335 337 337 336 336 336 335 335 335 335 333 329 325 323 324 326 328 328 327 327 327 328 328 328 326 324 324 323 323 322 321 321 321 321 321 321 321 320 319 319 318 317 317 316 316 315 315 315 314 314 314 312 308 304 302 304 307 307 307 306 306 305 305 305 305 305 306 306
341 342 343 342 341 341 339 338 338 337 335 336 337 336 335 335 335 335 336 336 335 335 336 335 335 335 334 331 326 323 322 323 325 327 328 326 326 327 327 328 327 325 324 323 322 321 321 321 321 320 320 320 320 319 319 318 317 317 317 316 316 316 315 315 315 315 314 311 308 305 304 305 307 307 306 306 306 304 303 303 304 305 305 306 306
341 341 343 342 341 340 339 339 339 338 335 335 335 335 334 334 335 335 335 335 334 334 335 334 333 332 330 326 323 322 322 323 325 327 327 327 326 326 327 327 326 324 322 322 322 322 322 321 321 320 320 319 319 318 317 317 316 316 316 316 316 316 315 315 314 312 309 306 305 305 306 307 307 305 305 305 304 302 302 303 305 305 305 305 306
341 340 341 341 341 340 339 339 338 336 335 335 336 336 335 335 335 335 334 333 332 331 331 331 330 328 325 323 323 323 324 324 325 326 326 327 327 326 327 327 324 323 323 324 324 323 323 322 321 321 320 319 319 318 317 316 316 316 316 316 316 315 315 314 311 307 305 306 306 306 306 306 305 304 304 303 302 301 303 305 305 304 305 306 306
340 340 340 341 340 339 339 339 337 334 335 336 336 337 337 336 336 335 334 332 331 330 330 330 328 325 324 324 324 324 323 324 324 325 326 327 327 326 327 326 323 323 324 324 323 323 322 322 321 320 319 319 318 318 317 317 316 316 315 315 314 314 314 312 307 304 305 307 306 306 306 306 304 304 302 301 300 302 304 305 304 304 305 306 306
337 339 339 339 338 336 336 337 337 335 335 337 337 337 337 337 336 335 333 332 332 331 331 330 327 326 325 326 325 325 325 325 326 326 326 326 326 326 326 326 324 323 323 323 323 322 322 321 320 320 319 318 318 317 317 317 316 315 315 314 314 314 313 310 305 303 305 306 306 306 306 305 305 304 301 298 300 303 304 304 304 305 306 306 305
336 336 336 336 336 335 335 337 338 337 336 337 337 337 336 336 335 334 333 332 333 332 331 330 329 328 327 326 325 325 325 325 325 325 325 325 324 324 324 323 323 322 322 322 322 322 321 321 320 319 319 318 317 316 316 316 315 315 314 314 314 314 312 308 304 303 305 305 305 305 305 305 305 303 299 297 299 302 303 303 304 305 306 306 305
336 335 335 336 337 337 337 338 338 337 336 337 336 336 335 334 334 333 333 332 333 332 331 329 328 328 327 326 325 325 325 325 325 324 324 323 323 322 321 321 321 321 322 322 322 322 321 320 320 319 319 318 317 316 316 315 315 315 314 314 314 313 310 306 303 303 304 305 305 305 305 305 304 301 298 296 298 300 301 303 304 305 306 306 304
338 337 337 337 338 337 336 337 337 336 335 335 335 334 334 333 332 332 332 332 332 332 331 329 328 329 329 328 327 327 326 326 326 325 324 323 322 322 322 321 321 321 321 321 321 321 321 320 320 319 318 317 316 316 315 315 314 314 314 313 313 312 309 306 303 302 303 303 304 304 303 302 300 298 296 296 298 300 302 303 303 305 306 305 304
336 336 335 336 337 336 334 335 335 335 334 333 333 333 333 332 332 332 332 332 331 330 329 329 329 329 328 328 327 326 326 325 325 325 324 324 323 323 323 322 322 321 321 321 321 321 320 320 319 318 317 316 316 315 314 314 314 314 313 313 311 309 306 304 302 302 302 302 302 301 300 298 296 296 296 296 298 301 303 302 303 305 305 304 304
334 333 332 334 335 335 333 332 333 333 333 332 333 332 332 331 330 330 330 330 329 329 328 328 327 327 326 326 325 324 322 321 321 321 322 323 324 323 323 322 322 322 322 321 321 321 320 319 317 317 316 315 314 314 313 313 312 312 311 309 308 306 304 303 302 302 302 302 301 300 298 296 296 296 296 296 298 300 302 303 304 305 303 303 304
333 332 331 332 333 333 332 331 332 332 332 332 332 331 330 329 329 329 329 328 328 327 327 326 325 325 324 324 323 321 319 318 319 319 320 322 323 323 322 322 322 322 322 322 321 320 319 318 316 316 315 315 314 314 313 312 311 310 309 308 306 305 303 301 301 300 300 300 299 297 296 296 296 297 296 296 297 299 302 304 305 302 301 303 305
332 331 331 331 332 332 332 332 332 331 331 331 331 330 329 328 328 328 327 326 326 326 326 325 325 324 323 323 322 320 318 317 318 319 321 323 323 322 322 322 322 322 321 321 320 320 319 318 316 316 315 315 314 313 312 311 310 309 308 307 305 304 302 301 299 298 297 297 296 296 296 296 297 296 296 296 297 300 303 305 304 300 300 304 305
333 332 331 332 332 331 331 331 331 331 330 329 329 328 326 325 326 327 326 325 325 324 324 323 323 323 323 323 322 320 318 318 318 318 320 322 322 322 322 322 321 321 321 321 320 319 318 317 316 315 315 314 313 312 311 310 309 307 306 305 304 303 302 301 299 298 296 296 296 296 296 296 296 296 296 296 298 301 304 304 301 299 302 304 305
332 332 332 332 331 331 331 330 330 329 329 328 328 327 325 325 326 326 325 323 322 321 320 320 320 321 322 322 321 319 318 318 318 318 318 320 320 321 321 321 321 321 320 320 320 319 317 316 316 315 314 313 313 312 311 310 308 307 306 305 304 303 302 301 299 297 296 296 296 296 296 297 296 296 296 297 299 302 303 302 299 300 303 305 304
329 330 330 329 328 329 329 329 329 328 328 328 327 326 325 325 325 324 323 322 321 320 319 318 319 320 321 321 320 319 318 318 319 319 319 319 320 320 320 320 320 320 320 320 319 318 317 316 315 314 313 313 312 311 311 310 308 308 307 306 303 302 302 300 298 296 295 295 296 296 296 296 296 296 296 297 299 301 301 300 300 302 304 305 304
Wind_Speed
45 45 44 43 43 43 42 40 38 37 36 35 35 35 34 34 33 32 32 31 31 29 28 27 26 26 26 25 24 24 24 24 22 21 19 18 19 20 22 23 23 21 20 20 20 22 24 23 23 22 21 20 20 19 19 19 18 19 16 13 11 10 9 9 11 12 11 10 10 10 9 11 12 13 14 14 14 15 17 20 21 22 21 20 19
46 46 45 44 44 44 43 41 39 38 38 37 37 36 36 35 34 34 34 34 33 31 30 29 28 28 27 27 26 27 27 27 25 24 22 21 21 21 22 22 23 23 23 22 21 22 23 24 25 25 24 23 22 22 23 22 20 19 16 14 13 11 10 10 11 13 15 13 12 12 11 12 14 15 15 15 16 17 19 20 20 21 21 20 20
47 46 45 45 45 44 44 43 41 40 39 39 38 38 37 36 35 36 36 36 35 33 32 31 30 29 29 29 29 30 30 30 29 28 26 24 23 22 23 22 22 23 24 24 22 22 23 23 23 24 23 22 22 22 22 21 19 17 15 14 14 11 10 12 12 14 17 16 14 14 14 15 16 16 15 17 18 19 20 20 19 20 21 21 21
47 46 46 45 45 45 45 44 43 42 41 40 40 39 38 38 37 37 38 38 37 36 34 33 31 31 31 31 32 33 33 33 32 32 30 28 25 23 23 23 22 23 24 24 24 24 23 23 22 21 20 20 20 20 20 19 17 16 14 13 13 12 12 13 14 15 16 17 16 15 16 18 19 18 18 20 21 20 21 21 20 21 21 21 21
46 46 47 46 45 46 46 46 45 44 43 42 41 40 40 39 39 38 39 40 40 38 36 35 34 34 34 34 34 35 36 36 35 35 33 31 27 25 25 25 23 23 24 25 25 25 24 23 23 21 21 21 21 20 19 17 16 15 14 13 12 12 11 12 13 14 15 17 18 18 18 20 21 21 21 22 23 23 23 23 23 22 21 20 20
46 46 47 47 47 47 48 47 47 46 45 43 42 42 41 41 41 40 40 40 41 40 39 37 37 37 36 36 36 36 37 38 38 37 35 33 29 26 26 26 25 24 25 26 26 26 25 24 23 22 23 23 22 20 18 16 15 14 14 13 13 11 11 12 13 15 16 17 19 20 21 22 23 23 24 23 23 24 25 26 25 23 21 21 22
46 46 47 48 48 49 49 49 48 47 46 44 43 43 43 42 42 42 41 41 41 41 41 40 39 38 37 37 37 38 38 39 39 38 37 35 32 28 27 28 28 27 27 27 27 26 25 24 22 22 23 23 21 19 18 17 16 15 13 13 14 14 13 13 14 16 17 18 20 22 24 25 25 25 25 25 24 24 25 25 26 26 25 24 25
46 46 47 48 49 50 49 49 49 48 46 45 44 44 44 43 43 43 42 41 41 41 42 41 39 38 38 38 39 39 39 39 40 39 38 36 33 30 29 30 31 29 28 29 30 29 27 25 24 23 23 23 21 18 17 17 16 15 14 14 15 17 16 15 15 16 18 20 22 24 26 28 28 27 26 26 26 25 25 25 27 29 28 27 27
46 46 47 48 50 50 50 49 49 48 47 46 45 45 44 44 44 44 43 42 41 40 39 39 38 38 38 39 39 39 39 39 40 39 38 37 35 32 31 31 32 30 28 30 32 31 29 27 24 23 24 23 20 18 17 17 17 17 17 16 18 19 19 17 16 17 20 22 23 25 27 29 28 27 27 27 27 27 27 28 29 29 29 29 28
46 47 48 49 49 49 49 50 50 48 48 47 46 45 44 43 43 43 43 41 39 37 37 37 37 38 38 38 38 38 39 39 39 39 38 37 36 35 34 34 32 31 30 31 31 30 29 26 23 22 23 23 21 19 18 19 19 19 18 19 20 20 20 19 17 18 21 22 23 24 26 28 27 25 25 26 26 27 28 29 29 29 29 29 29
47 48 49 49 49 49 49 49 50 49 49 48 46 45 43 42 42 42 41 39 37 35 34 34 35 36 37 36 36 36 36 37 37 38 37 37 36 36 37 35 33 31 31 31 30 29 27 25 22 22 25 25 22 20 20 20 20 19 20 21 21 20 20 20 19 19 21 23 24 23 25 28 28 25 25 26 26 27 28 28 28 29 28 29 31
49 50 50 50 48 48 48 49 49 49 49 48 47 45 43 42 41 40 39 38 37 35 34 33 34 34 34 34 33 33 33 33 33 34 34 34 35 37 38 36 33 32 32 32 32 30 27 25 24 24 25 25 22 21 21 21 21 21 21 21 20 20 20 19 19 19 21 24 25 23 23 26 27 26 26 27 27 28 28 28 28 29 29 30 33
50 51 51 50 50 48 47 47 47 47 47 47 46 44 42 41 41 40 39 38 37 35 33 33 33 32 32 32 32 32 31 30 29 29 30 30 32 36 38 36 34 33 32 33 33 30 27 26 26 26 26 24 21 20 20 20 21 20 19 18 17 18 19 19 20 21 23 25 26 25 23 24 25 25 27 28 27 27 28 29 28 29 30 32 36
50 52 52 51 51 50 48 47 46 46 45 44 44 43 42 41 40 40 39 37 36 35 32 31 31 31 31 32 32 33 33 31 28 25 25 26 30 35 37 36 35 33 33 33 32 30 27 27 27 28 26 23 20 19 19 19 19 17 16 16 16 17 18 19 21 23 23 24 25 25 23 23 23 25 26 26 26 27 28 28 27 29 33 35 37
50 52 52 53 52 51 50 49 47 45 44 43 42 42 42 41 40 39 38 37 36 35 33 31 31 31 32 33 34 35 33 29 25 22 21 23 29 33 36 36 36 35 33 33 32 29 26 26 27 26 23 20 19 18 17 17 17 17 17 18 19 20 20 20 21 22 22 22 22 23 22 22 23 24 24 23 25 26 26 26 28 31 33 33 30
51 51 52 53 54 53 52 51 49 46 44 43 42 42 42 41 40 38 38 37 37 36 35 33 33 33 33 34 33 32 29 25 22 20 20 22 26 30 34 36 36 35 33 33 30 26 23 25 25 24 21 19 18 16 15 16 17 17 18 19 21 22 21 21 21 21 20 20 20 21 22 22 22 23 24 24 24 24 25 27 31 31 29 26 25
52 51 52 53 55 54 53 52 50 48 46 44 43 42 42 40 39 38 38 38 38 37 36 35 34 33 31 30 29 27 25 22 20 20 21 22 24 27 32 36 36 33 31 30 27 23 23 24 24 24 22 20 18 16 16 18 19 20 21 22 23 23 21 19 19 18 18 18 20 22 22 22 22 24 25 25 24 25 27 30 29 25 23 25 27
54 52 51 53 55 54 53 52 51 49 48 45 44 43 41 38 38 37 37 36 35 34 33 32 31 28 25 23 22 20 19 18 17 17 19 21 24 27 32 36 35 32 29 28 26 24 24 25 25 24 23 22 19 16 18 21 22 24 24 24 25 24 20 17 17 17 18 20 22 23 23 23 23 23 24 25 26 25 25 24 21 20 23 26 28
55 54 52 52 54 54 53 52 52 50 48 46 44 42 39 35 35 34 33 32 31 31 31 30 27 25 22 19 18 16 15 14 13 14 16 20 22 25 30 34 34 30 27 27 25 24 25 26 25 24 24 22 18 17 20 23 24 24 24 26 26 22 17 16 16 18 19 21 21 22 23 24 25 26 27 27 24 19 17 17 17 18 21 22 22
53 55 53 52 53 54 53 52 52 50 48 46 43 39 35 33 32 31 30 29 29 30 30 28 25 22 20 18 16 15 14 12 12 13 15 17 18 21 26 32 32 26 23 24 23 23 24 25 25 24 23 20 17 17 20 22 23 24 25 25 22 18 16 16 18 19 21 22 22 23 24 25 26 26 24 21 16 14 14 16 16 16 18 19 19
52 52 52 52 53 53 53 52 51 49 47 44 40 35 33 32 31 30 29 29 29 28 28 26 23 21 18 16 14 13 13 12 11 11 12 13 13 15 21 27 26 20 18 19 20 21 22 22 22 20 18 16 17 19 21 21 23 23 22 20 18 17 17 18 20 21 22 23 23 24 25 24 23 20 16 13 13 15 16 17 18 19 20 22 24
51 51 51 52 52 52 51 50 48 46 43 39 37 35 33 31 30 29 28 27 26 26 25 24 22 19 17 14 12 12 11 10 10 9 9 10 11 12 16 20 19 16 16 18 18 19 19 19 17 15 15 16 18 20 22 22 20 18 16 16 17 18 20 21 23 23 23 23 24 23 22 19 15 12 10 11 13 17 19 20 22 24 25 27 30
50 50 50 51 52 52 50 47 44 41 39 37 36 34 32 30 29 28 26 25 24 24 23 21 18 16 15 14 12 11 10 10 10 10 10 10 11 13 14 16 16 16 17 17 17 16 16 15 14 13 14 16 18 19 19 17 15 14 15 17 18 20 22 22 22 21 20 20 21 19 15 12 10 10 11 15 18 21 22 24 27 28 29 29 28
49 49 50 50 50 48 45 42 40 38 37 36 35 33 32 30 28 26 24 23 22 22 21 19 16 14 14 13 12 11 10 10 11 12 13 12 13 14 15 15 16 17 17 17 17 16 15 14 13 13 14 15 15 15 13 12 13 14 16 16 17 17 17 14 12 12 13 14 13 12 10 8 9 12 16 18 20 21 23 26 26 23 21 20 20
50 49 48 48 46 44 41 38 37 36 36 35 34 33 31 30 28 26 24 22 22 21 20 17 15 14 14 14 12 10 10 12 14 15 16 15 14 15 16 17 17 17 17 17 18 18 18 17 15 15 15 14 12 11 11 12 12 13 12 11 10 9 8 7 8 9 9 9 9 9 9 9 12 15 18 18 17 20 25 25 19 15 17 18 19
49 48 46 45 44 42 40 37 36 35 35 34 33 31 30 28 27 25 23 22 21 20 19 17 15 14 14 13 12 11 13 16 17 17 17 18 17 17 17 17 17 18 19 19 19 19 19 18 16 17 16 13 12 11 11 10 9 9 8 7 7 7 7 7 8 8 8 8 9 10 11 12 14 17 19 19 19 22 26 23 17 17 19 19 19
48 48 47 45 43 40 38 36 36 36 35 33 32 30 28 26 25 23 22 22 21 19 17 16 15 14 15 13 12 14 17 19 18 17 17 18 18 17 17 18 18 19 20 21 20 20 19 18 17 16 14 13 13 11 9 7 7 8 7 6 6 7 7 8 9 9 10 10 11 12 13 14 17 19 19 20 22 24 22 18 16 18 18 17 19
50 48 46 43 40 37 36 37 37 36 35 33 31 29 26 24 22 22 21 20 18 16 15 14 14 16 15 15 16 19 20 19 17 16 15 16 17 17 18 18 19 20 20 20 20 19 18 17 16 15 13 12 11 9 7 7 8 8 6 5 6 6 7 8 9 10 10 11 12 13 14 17 19 20 20 22 23 21 17 14 16 17 17 17 19
45 42 38 38 38 38 38 38 38 37 35 33 31 28 25 23 22 20 18 15 12 12 13 14 15 15 14 15 17 18 18 16 15 14 13 14 15 16 16 16 17 18 18 18 18 17 17 16 15 14 12 10 8 7 8 8 9 9 8 6 6 5 6 7 9 10 10 10 10 11 13 16 17 19 21 21 19 15 13 14 16 17 17 18 19
36 36 36 38 38 39 39 38 36 36 34 32 30 27 24 21 18 16 15 14 15 14 14 15 15 13 12 13 13 12 11 11 12 13 12 13 13 13 13 13 14 15 16 16 16 17 16 15 14 13 11 9 7 8 9 10 11 11 10 8 7 6 5 7 10 11 10 9 10 12 13 16 18 19 18 16 13 12 14 15 15 15 17 18 19
33 37 38 39 39 39 39 37 35 33 30 28 27 25 23 20 18 16 17 19 20 19 18 17 14 11 11 11 11 10 10 11 12 12 12 12 12 13 15 15 15 15 16 17 17 17 16 15 13 10 8 7 8 10 12 12 12 11 11 10 8 7 6 7 9 11 11 13 16 17 18 19 18 16 13 11 12 13 14 14 14 16 17 18 19
36 38 38 39 39 39 37 34 31 29 26 24 23 22 22 22 22 22 21 21 20 20 18 17 16 13 11 9 9 9 10 10 10 10 11 11 12 13 15 16 16 17 18 18 17 17 15 14 11 8 7 8 10 12 14 13 10 8 9 10 8 7 6 7 10 13 16 19 20 20 20 21 18 13 10 11 12 13 13 14 16 17 17 18 19
39 38 37 37 35 32 30 28 26 24 23 22 21 20 19 21 24 26 25 23 21 19 17 16 17 17 15 12 10 8 7 7 8 9 9 10 11 12 13 14 15 17 19 19 17 16 14 11 8 7 8 11 12 13 13 12 9 7 8 8 8 7 7 9 13 15 18 20 21 20 22 23 18 13 11 10 11 12 14 16 17 17 18 19 20
36 33 31 30 28 26 24 23 21 21 21 21 20 19 19 20 23 27 28 26 24 21 17 17 18 18 16 14 13 12 10 10 10 9 9 10 11 11 12 13 14 17 18 17 16 15 14 11 9 8 10 14 15 14 12 11 11 11 10 9 9 9 10 12 13 15 17 18 19 21 24 23 17 11 9 9 10 13 14 15 16 17 18 19 19
26 25 24 24 23 21 20 19 19 19 20 21 21 20 19 19 21 24 26 27 26 24 21 19 19 18 17 16 15 15 14 12 12 11 11 11 12 12 12 13 15 17 17 17 16 15 15 13 11 11 13 16 16 15 13 10 10 10 10 10 11 11 12 12 14 16 18 19 22 24 24 17 10 6 7 9 11 13 14 15 16 17 18 18 18
19 22 23 22 21 19 18 18 16 15 17 20 21 19 18 18 19 20 22 24 25 24 23 20 19 19 19 18 17 15 14 13 13 13 13 13 13 13 13 14 16 18 18 18 17 16 15 13 12 12 14 16 16 15 13 12 12 12 11 10 11 12 13 14 15 17 20 22 24 22 15 8 3 4 7 10 12 13 14 15 15 16 16 17 19
21 25 24 21 20 18 17 16 14 13 15 19 20 18 16 17 17 17 19 21 22 23 23 20 19 20 20 20 18 16 14 14 14 14 14 14 14 14 14 14 15 17 17 17 16 15 14 13 11 11 11 12 12 13 13 13 12 11 11 11 12 13 14 15 18 21 23 21 17 11 6 3 4 6 9 11 13 15 15 14 13 15 16 18 19
21 24 24 22 20 19 17 16 14 13 16 20 19 16 14 14 16 17 19 19 20 21 21 20 19 20 19 19 17 16 15 15 15 15 16 16 15 15 15 14 15 16 15 15 15 14 12 11 12 11 11 11 12 12 12 11 10 10 11 13 14 16 17 19 21 21 18 12 7 5 5 6 7 9 11 13 14 15 13 12 13 16 17 18 19
20 23 24 23 20 19 18 16 13 13 17 20 19 16 13 13 14 17 18 19 19 19 20 20 19 19 18 17 16 15 14 15 15 16 16 16 16 15 16 16 16 16 14 14 13 11 9 10 12 12 12 13 13 12 11 10 11 12 14 15 16 17 19 21 21 16 9 5 5 6 7 9 10 11 12 13 14 12 10 11 15 16 16 18 19
20 23 23 21 19 18 17 15 13 15 19 22 20 17 15 15 15 16 17 18 18 16 17 19 19 18 17 15 13 13 13 13 13 14 14 15 15 15 16 17 17 17 15 14 13 11 9 12 14 13 12 12 11 10 10 11 13 13 14 15 15 16 18 20 17 9 4 4 6 8 9 11 12 11 11 13 12 9 10 13 15 14 15 17 19
18 20 20 18 16 14 14 13 13 16 20 21 18 18 18 18 17 14 13 15 16 14 14 15 16 15 14 13 11 11 11 11 11 12 12 13 13 14 15 16 18 18 17 15 13 12 12 14 15 14 12 12 11 10 11 12 12 12 13 15 15 16 19 18 11 4 3 5 7 9 11 12 12 12 13 12 9 8 10 13 13 13 14 17 18
14 13 12 13 13 12 13 14 14 16 18 17 16 18 20 19 19 17 15 15 16 15 13 12 12 13 13 13 12 11 11 10 10 11 11 11 11 12 13 14 16 18 17 15 14 14 14 15 15 14 13 12 11 11 11 11 11 12 15 16 17 19 21 16 8 5 6 8 9 10 12 13 12 13 14 12 10 10 11 11 11 12 14 17 17
12 11 12 15 16 16 16 17 18 18 18 17 18 20 20 19 20 20 18 18 18 16 14 12 13 14 14 13 12 12 11 11 11 11 11 11 10 9 8 9 12 14 15 14 14 15 15 15 14 14 14 14 13 12 13 13 14 16 18 19 19 21 20 14 9 9 11 11 12 13 14 13 13 14 14 13 12 11 10 10 11 12 14 16 16
15 17 18 18 17 17 17 17 18 19 19 18 19 21 20 18 19 19 19 19 19 17 14 12 13 14 13 12 12 12 11 10 11 11 11 12 11 9 7 6 7 13 15 14 13 15 15 15 15 14 14 14 15 15 15 15 16 18 18 19 20 21 18 14 12 13 14 14 14 14 13 13 13 14 13 12 11 10 10 11 10 11 14 16 14
15 18 18 17 16 16 17 18 19 19 18 19 21 22 21 19 17 17 17 17 16 14 13 12 12 12 11 10 10 9 8 10 11 12 13 14 13 11 11 9 9 11 14 14 15 16 15 14 14 14 13 13 13 13 13 14 15 17 18 19 20 19 16 14 14 14 15 14 13 12 12 12 12 12 12 11 10 10 11 10 8 11 14 14 11
13 15 17 18 17 16 17 20 21 20 20 22 22 22 21 20 17 16 17 16 15 14 13 12 12 11 10 10 10 8 7 9 11 12 15 17 14 11 12 12 11 12 14 15 16 15 13 11 11 12 13 13 12 12 13 15 17 18 19 20 19 16 14 14 16 15 15 14 14 14 13 12 12 12 12 12 11 10 9 7 8 12 13 10 9
17 16 17 18 17 16 18 21 23 22 21 21 21 21 21 18 16 15 16 14 12 12 11 10 11 11 10 10 10 8 5 5 8 10 14 16 13 11 12 14 13 14 14 15 15 15 13 11 11 12 13 14 15 16 17 18 19 19 20 20 17 13 11 12 15 16 16 16 16 15 13 12 12 12 12 13 12 9 6 7 11 13 10 7 8
14 14 14 13 14 16 18 21 22 21 20 19 20 20 19 16 14 14 14 12 11 11 11 11 11 11 11 11 10 7 4 2 3 7 14 16 12 10 12 13 14 14 14 14 16 16 15 14 13 13 14 16 18 19 18 18 19 19 18 17 15 12 10 9 9 11 13 13 13 12 12 11 11 12 13 13 10 6 5 8 12 11 7 5 7
12 14 15 14 15 17 19 18 18 17 17 17 18 17 15 15 15 14 13 12 12 11 10 11 12 12 13 13 11 7 5 4 4 7 11 14 13 12 12 13 13 13 13 14 17 17 16 15 15 15 15 16 16 16 16 17 16 15 14 13 11 10 11 10 9 9 10 10 10 10 10 10 11 12 12 11 8 6 6 9 10 8 4 5 8
10 13 16 16 16 17 19 18 16 14 13 15 15 13 12 14 16 14 12 11 10 9 8 10 11 11 12 13 10 7 6 6 5 4 6 9 12 13 12 12 12 12 13 14 17 16 15 15 16 16 15 14 14 13 15 15 13 12 13 12 9 8 9 10 10 10 10 9 9 9 9 9 11 11 10 9 8 7 7 8 7 4 3 6 9
6 6 9 10 8 9 12 15 16 14 14 15 16 14 12 14 14 12 10 9 9 9 9 10 9 10 12 12 11 9 8 8 6 5 5 7 10 12 13 12 12 12 13 15 17 17 15 15 15 14 13 13 13 13 14 13 11 10 12 12 10 8 9 10 10 11 10 9 9 9 9 10 11 10 9 9 9 7 5 4 3 2 3 6 8
Wind_Direction
218 217 217 216 216 215 216 218 218 218 220 220 220 221 223 226 228 228 229 229 230 230 229 230 232 233 233 232 231 231 234 235 232 228 226 224 219 214 211 211 214 218 218 213 211 211 211 210 210 213 218 222 223 225 228 231 235 241 246 243 234 232 241 253 268 280 288 291 290 287 285 289 295 298 299 297 293 286 282 281 281 281 285 291 294
217 217 216 216 216 216 216 218 219 219 220 221 221 222 223 226 228 229 230 231 231 232 232 233 232 232 234 235 235 236 238 241 241 237 234 231 225 217 211 210 213 215 217 218 214 211 211 211 211 214 219 224 225 226 229 231 233 235 235 234 232 233 241 249 261 278 289 295 294 292 295 299 305 312 311 306 304 300 294 289 284 280 283 288 292
216 217 217 216 216 216 216 218 219 219 220 222 222 223 224 225 227 229 231 232 233 234 235 236 235 234 235 237 238 239 240 242 243 242 240 237 232 224 215 213 215 216 217 218 216 212 211 210 212 214 217 221 222 223 227 228 230 233 231 230 233 234 238 248 259 272 282 288 291 294 301 304 306 310 312 308 304 302 301 298 294 290 291 293 295
215 215 216 216 215 215 216 218 219 219 221 223 224 224 224 225 226 229 232 233 233 234 236 237 238 238 238 239 240 240 241 242 243 244 243 241 238 232 223 218 219 220 220 218 216 215 216 214 215 216 217 221 223 222 223 225 229 234 235 232 233 235 241 252 261 267 273 279 285 292 301 304 304 304 306 306 304 304 306 306 303 299 296 295 295
214 215 216 215 214 214 216 218 218 219 221 224 225 225 225 226 227 229 232 233 233 234 235 236 239 240 242 243 243 242 242 243 244 245 245 243 241 237 230 224 224 224 223 221 218 218 220 218 217 219 222 225 225 223 222 223 227 234 240 243 242 243 247 256 265 271 275 281 287 293 298 301 301 299 301 306 307 307 310 311 309 306 303 300 298
213 214 215 215 215 215 216 217 218 219 222 224 226 225 225 226 227 229 232 233 234 234 234 236 239 242 245 246 246 246 245 245 245 246 246 244 241 240 234 228 228 229 227 224 222 223 223 221 218 220 224 224 220 219 223 226 230 235 242 249 252 253 257 266 275 280 282 285 291 295 297 298 297 297 301 307 307 306 309 311 312 311 308 306 304
212 214 215 215 215 216 216 217 218 219 222 225 226 225 225 226 227 230 232 233 235 235 236 237 240 244 246 247 247 247 246 245 245 245 245 244 243 242 239 233 232 232 229 227 226 227 227 225 222 224 225 224 221 221 224 229 232 236 243 252 256 257 261 271 280 284 285 288 292 295 297 298 298 298 302 305 303 303 307 309 310 309 306 304 303
211 213 215 215 216 216 217 217 218 220 223 225 225 225 226 226 227 230 232 233 235 236 237 239 241 244 246 246 248 247 246 245 244 243 242 242 242 244 244 241 235 231 229 227 226 228 229 228 228 230 228 225 225 228 229 231 236 240 243 248 253 256 260 267 273 278 282 286 291 296 299 300 299 297 299 301 301 303 306 306 306 305 302 299 297
211 212 214 216 216 217 218 217 217 220 222 224 225 226 226 227 228 229 231 234 236 237 237 239 241 243 245 245 246 246 246 245 245 244 243 241 244 247 247 243 236 234 233 228 225 226 229 230 231 233 230 226 226 230 231 232 237 241 240 241 245 251 258 264 269 277 282 286 292 297 299 299 299 297 298 300 301 303 305 305 303 301 298 295 294
210 211 213 216 217 217 217 216 216 218 222 224 226 226 227 227 227 228 231 234 236 236 235 237 240 243 244 245 246 246 247 249 249 248 246 245 249 251 248 243 238 236 235 230 225 226 228 229 229 232 234 232 229 230 233 234 238 242 244 245 246 252 262 269 274 280 283 287 292 298 300 300 301 300 299 300 302 302 303 303 301 299 298 296 297
210 211 213 216 218 217 216 215 216 218 221 224 225 226 226 227 227 227 229 232 235 235 235 236 240 242 243 245 247 248 250 251 251 251 249 249 251 250 248 245 240 236 234 229 225 225 226 228 228 231 235 234 230 234 241 243 245 249 251 252 254 259 267 271 274 278 282 286 291 295 298 300 303 302 301 301 302 302 301 301 299 299 299 300 304
210 211 213 215 217 218 217 216 217 219 221 222 224 225 225 225 225 226 227 229 232 234 235 236 238 240 243 246 249 251 253 254 253 253 252 252 252 249 245 242 238 235 232 227 224 224 226 229 229 231 233 232 232 241 248 248 251 256 257 259 261 266 269 269 271 277 283 288 290 289 291 296 299 301 301 302 302 301 299 298 297 298 301 304 307
211 211 212 214 216 219 219 218 218 219 221 221 222 223 224 223 224 224 225 227 229 232 234 235 236 237 240 244 250 253 255 256 255 253 252 252 250 247 242 238 235 234 231 226 222 222 226 230 231 231 232 232 239 250 253 251 253 256 258 260 263 268 271 272 273 278 284 287 284 280 284 292 295 295 297 298 298 296 295 296 297 299 302 304 304
211 211 212 214 216 218 220 219 219 220 220 221 220 221 222 222 222 223 223 224 226 229 231 232 233 235 239 244 248 252 254 256 255 253 252 251 249 245 241 235 233 232 229 225 224 227 234 236 234 232 231 237 252 261 257 251 251 253 256 263 269 274 278 277 275 278 281 282 278 276 281 289 292 294 296 295 292 291 293 295 297 298 300 300 300
212 212 212 214 215 216 218 219 219 218 218 218 218 219 220 220 220 220 221 223 225 227 229 229 231 235 241 245 248 250 252 252 251 248 248 248 246 243 240 235 231 229 228 226 229 235 239 236 232 231 233 247 264 264 254 250 253 259 266 273 280 282 281 278 276 279 279 278 277 277 282 287 292 296 297 292 289 289 290 291 294 296 298 299 299
212 213 213 214 215 215 216 216 216 215 215 215 215 216 216 216 217 219 220 222 224 227 228 230 232 237 241 244 246 248 249 248 246 245 245 244 241 240 239 235 229 226 226 227 230 235 234 231 231 230 236 256 266 258 251 255 260 266 275 283 286 285 282 280 278 278 278 277 279 281 283 286 288 289 290 288 287 287 288 290 293 296 300 302 302
211 214 214 214 214 214 213 212 211 211 212 212 212 213 213 213 215 218 221 222 225 227 230 232 236 240 240 240 240 244 247 249 249 250 249 244 240 240 237 231 224 222 223 225 228 232 232 233 232 231 242 264 269 253 250 258 263 271 280 285 288 287 285 279 272 269 268 271 276 280 280 281 282 283 282 282 284 288 292 294 296 297 300 303 305
211 214 215 214 213 212 211 210 208 208 209 211 211 211 210 211 214 218 222 225 228 231 233 235 237 239 237 236 238 242 245 246 246 247 247 246 243 241 235 226 219 218 221 225 229 234 235 235 233 235 252 270 271 256 255 263 268 274 281 286 289 287 282 274 267 266 270 274 278 280 279 279 278 277 277 281 286 292 295 296 298 300 301 302 304
210 214 216 214 211 210 208 208 207 206 207 209 210 210 209 211 215 217 220 224 228 232 234 234 234 233 233 234 235 235 234 235 238 239 243 246 246 241 234 224 215 216 223 228 232 235 237 237 238 247 260 269 266 260 262 267 271 276 281 286 287 282 277 276 276 278 281 282 282 281 279 277 277 279 283 286 288 291 292 294 297 299 300 301 303
210 212 213 211 207 206 206 206 205 204 206 207 207 207 209 211 213 214 217 221 225 226 227 229 231 232 235 235 230 227 229 234 238 238 241 246 246 242 235 223 216 218 227 230 233 235 236 237 243 254 261 262 260 262 265 269 274 279 282 284 282 279 281 285 285 286 286 284 283 282 280 279 281 283 285 284 283 287 290 292 293 295 297 299 298
208 209 208 206 203 203 203 202 201 201 202 203 203 203 207 209 211 215 217 216 214 215 218 223 227 229 233 232 225 224 230 236 235 232 235 239 238 237 232 224 221 228 233 231 231 232 233 239 248 255 258 257 257 262 269 275 279 280 280 279 277 280 285 285 285 286 285 284 282 280 279 281 282 281 279 278 283 288 287 284 284 287 291 294 294
205 205 203 200 198 198 198 197 195 196 198 199 199 200 203 208 212 212 209 205 205 210 216 219 222 225 229 231 228 226 225 220 215 213 214 218 216 213 216 222 228 233 229 224 226 232 239 248 253 253 253 254 258 265 273 277 277 274 274 275 280 284 285 285 286 287 285 283 280 279 280 279 275 270 271 277 279 280 280 281 282 282 283 285 288
200 199 196 192 192 192 191 189 189 191 194 196 197 198 201 204 204 200 198 201 207 212 215 217 222 228 231 230 226 219 208 199 197 197 196 197 201 207 215 222 225 221 217 219 228 240 248 250 249 250 254 258 263 268 270 270 267 269 276 281 285 286 284 286 288 288 286 283 280 279 276 271 270 276 283 284 282 282 286 288 287 284 283 283 284
193 192 188 185 184 184 183 183 186 190 192 193 195 198 199 196 191 191 197 204 210 214 217 221 227 231 230 227 218 204 195 194 191 188 187 188 197 208 211 210 208 208 213 223 233 241 246 247 250 255 260 264 265 261 258 260 267 278 287 290 291 289 288 294 302 306 306 300 289 278 271 276 294 300 298 294 291 294 300 299 293 291 294 295 296
186 183 180 178 177 176 176 179 184 187 190 194 195 193 189 186 187 193 200 206 212 218 221 223 227 228 225 221 210 192 186 187 184 180 180 184 190 196 199 199 202 208 217 228 234 237 241 246 251 257 263 263 256 248 253 268 281 294 301 303 305 305 308 326 339 340 339 333 319 306 307 314 309 302 303 303 299 305 313 310 303 308 314 312 310
176 174 172 171 171 171 173 176 180 184 187 191 190 184 182 184 190 196 202 209 215 219 221 225 228 225 216 209 198 183 178 179 178 177 180 182 184 187 192 199 207 215 223 230 234 235 238 244 253 261 262 254 244 248 264 280 299 316 317 316 327 335 334 335 336 334 333 332 326 324 323 314 298 295 302 305 301 309 317 316 312 317 319 317 315
168 166 166 166 167 171 174 176 177 179 181 181 181 181 184 190 194 200 207 212 215 217 221 226 222 208 198 191 180 172 172 175 177 181 185 186 186 187 194 202 209 215 221 226 230 232 237 245 253 256 250 240 241 254 269 287 313 327 325 317 322 329 330 327 321 321 325 324 319 317 310 297 290 291 295 297 302 311 317 316 315 319 322 322 321
160 157 159 162 166 170 174 174 174 174 175 177 180 183 188 193 199 205 212 217 219 218 214 205 194 185 178 168 163 166 173 177 179 182 185 188 189 191 195 201 205 209 214 220 225 231 239 245 245 241 235 237 246 258 271 286 304 313 313 309 308 310 317 318 312 309 312 310 305 301 294 286 284 286 290 298 306 313 317 318 320 323 325 326 325
148 149 153 160 164 167 170 171 173 173 175 179 181 183 188 196 203 209 213 213 207 200 187 173 169 168 162 158 162 168 172 174 176 180 185 190 192 193 195 197 201 207 214 220 226 234 240 237 231 229 232 237 249 265 273 281 290 295 295 292 287 284 288 294 294 291 288 288 292 293 285 280 283 290 298 305 311 316 321 324 324 324 326 327 326
146 153 159 163 165 168 170 172 175 177 179 182 185 186 190 194 198 201 196 179 165 163 162 157 155 151 146 151 161 163 159 160 168 176 184 189 193 197 201 206 211 216 221 225 229 235 234 227 222 226 232 240 262 282 284 280 280 283 285 278 269 268 271 278 286 286 277 277 290 295 291 292 297 302 306 312 318 322 323 324 326 328 328 328 328
156 160 164 167 170 173 175 175 177 180 182 186 190 189 185 177 171 173 172 163 157 158 158 156 160 159 147 141 145 152 156 160 165 172 180 187 192 200 208 214 219 222 225 227 228 226 221 218 222 230 237 255 283 298 295 284 275 274 273 266 262 269 272 271 272 271 270 279 290 297 304 310 310 308 312 318 318 318 322 329 333 332 329 329 329
166 167 169 170 173 176 177 177 179 182 183 184 184 182 177 168 162 163 165 163 163 164 165 166 174 180 176 164 159 160 164 167 169 172 178 184 190 198 206 211 215 218 220 221 221 218 212 214 226 244 264 280 292 297 291 282 275 272 264 253 253 267 271 261 259 264 275 287 294 301 313 319 314 304 304 311 313 319 330 335 333 331 330 330 328
172 172 170 170 172 176 177 177 179 181 180 178 176 176 176 173 167 164 165 168 170 171 174 178 182 186 189 189 188 189 190 187 183 182 185 191 197 202 207 207 206 207 209 209 210 211 213 220 233 251 266 271 276 282 282 271 257 245 235 230 242 263 267 263 269 276 285 292 295 300 312 319 315 302 297 308 323 333 334 330 329 331 330 328 327
171 169 167 168 172 175 174 174 175 176 178 180 180 179 178 177 172 169 168 171 174 176 177 181 185 187 186 183 186 195 201 199 197 197 201 207 210 210 209 204 197 196 200 205 207 210 215 222 228 235 246 254 259 264 265 249 232 227 230 236 251 267 272 275 283 289 293 295 298 305 312 316 315 307 308 327 337 332 326 326 328 329 327 328 333
163 159 159 164 167 165 162 162 166 172 179 184 184 182 180 179 177 175 173 174 178 181 181 181 184 187 185 183 188 193 193 193 199 207 211 213 211 207 206 204 200 199 202 207 211 214 219 228 236 240 245 251 255 257 257 253 248 250 253 253 254 262 275 287 294 296 296 298 303 308 312 312 307 311 331 339 332 322 320 324 325 325 328 335 339
151 150 154 160 161 159 157 156 159 167 178 183 185 187 188 185 180 178 180 183 186 186 186 187 192 193 191 190 192 193 192 196 202 206 208 209 207 205 205 206 207 207 208 210 214 220 230 242 249 246 245 250 255 258 262 269 274 272 269 266 264 267 277 288 295 299 303 306 308 310 311 309 314 342 339 327 316 312 314 318 320 325 336 341 340
148 150 154 159 161 161 161 160 157 158 166 175 182 185 185 187 188 188 191 195 195 195 195 197 198 195 192 191 194 195 197 200 202 203 205 207 208 211 212 211 212 213 215 218 222 228 238 242 237 231 237 246 254 262 269 273 271 269 271 276 279 283 287 292 296 300 303 304 305 308 311 318 338 337 321 309 308 311 314 320 328 335 341 341 338
151 154 158 164 166 168 166 161 159 159 159 163 168 168 164 173 187 196 201 202 199 199 202 201 198 196 193 192 193 195 198 202 204 205 209 213 216 218 218 215 214 216 220 225 230 234 236 230 223 229 247 258 261 267 272 268 264 270 277 280 285 290 294 297 302 304 303 304 309 317 321 323 320 312 304 304 311 315 322 334 340 339 339 339 338
153 159 164 166 167 168 166 160 159 165 164 160 161 164 165 172 183 193 202 205 199 197 200 200 197 194 192 191 193 198 203 208 210 211 215 219 221 222 221 217 214 215 219 225 232 238 238 230 229 240 256 263 266 273 273 264 262 269 276 280 285 289 295 303 308 308 304 314 324 314 309 307 301 298 303 310 314 320 332 340 337 335 336 337 337
154 160 163 166 167 169 169 165 161 164 164 161 165 177 186 189 191 195 202 204 198 194 198 200 197 194 194 198 205 209 211 212 212 214 219 222 222 222 223 219 215 213 214 219 229 236 231 224 228 238 248 257 268 278 274 266 266 272 281 288 289 292 301 309 310 303 291 304 302 293 293 297 297 302 313 316 316 326 337 332 329 332 335 335 335
156 158 159 163 166 168 171 172 169 165 161 160 169 184 191 193 196 200 202 199 191 185 189 197 200 202 206 208 206 202 203 208 211 213 217 219 220 222 225 225 225 223 219 219 226 231 223 216 221 230 238 249 263 268 262 261 268 280 291 295 293 296 304 309 307 299 301 296 281 276 286 292 297 308 318 319 320 327 327 323 326 333 335 335 336
159 159 165 174 178 180 181 180 178 173 169 170 179 188 189 191 194 197 198 197 192 187 188 193 196 197 195 192 188 189 195 202 207 210 212 216 221 225 231 236 235 229 220 215 219 228 230 227 230 236 242 248 254 255 255 262 273 283 288 290 289 295 303 304 292 269 275 272 265 272 282 286 294 307 316 318 315 315 318 321 327 332 333 335 336
176 181 189 190 188 186 185 185 182 179 179 184 190 189 188 191 195 197 198 198 196 194 194 192 186 182 179 178 181 189 196 202 207 212 216 218 219 222 233 239 228 213 206 208 217 225 231 235 241 248 252 251 251 255 261 270 276 279 282 286 290 298 304 298 272 255 257 258 261 268 273 281 293 305 313 316 312 311 318 321 323 331 335 336 337
187 186 182 181 184 189 190 189 187 184 183 186 189 188 188 191 194 193 193 194 194 195 197 194 187 185 187 190 191 194 201 211 217 219 220 219 219 222 234 235 203 189 196 211 224 228 233 242 250 252 249 247 251 258 263 268 273 277 282 288 294 299 298 282 259 253 255 256 260 267 275 287 299 307 314 316 312 312 318 320 325 337 337 334 338
190 187 174 167 174 183 183 179 179 181 184 185 184 184 187 188 185 182 184 187 188 187 188 188 188 192 201 210 212 215 225 233 234 230 223 218 220 226 232 232 215 201 207 220 229 232 238 247 251 248 243 243 251 258 261 267 274 278 283 290 295 297 289 270 255 258 262 265 272 283 292 300 306 310 314 312 306 308 315 319 329 335 330 329 345
184 186 181 178 179 181 181 182 182 183 185 186 183 181 182 180 172 167 170 175 178 180 179 180 186 196 209 220 227 234 242 248 253 247 227 214 213 218 218 220 225 227 228 231 234 238 241 240 236 237 240 244 251 259 265 270 275 278 283 289 294 293 280 261 255 259 265 272 282 290 295 299 304 308 310 306 300 304 314 321 326 325 323 332 360
169 168 173 180 183 182 182 184 183 184 187 189 186 184 183 179 173 173 178 181 187 196 197 193 194 203 213 221 223 224 231 251 262 244 211 197 199 212 216 217 225 233 236 236 234 234 234 230 228 232 238 244 253 262 268 273 277 281 286 294 300 300 284 263 257 260 265 271 278 284 289 296 302 306 306 302 297 303 319 324 320 321 327 349 8
182 177 177 184 191 191 188 186 187 189 193 193 189 188 186 182 182 188 192 189 190 202 215 219 216 213 215 217 218 220 223 235 228 201 190 188 196 211 215 217 225 232 234 232 228 226 227 229 231 235 241 249 257 266 274 279 283 287 294 299 300 300 298 288 276 272 271 272 277 283 288 295 302 304 304 300 297 303 317 316 317 322 335 2 10
188 185 183 185 188 186 182 182 185 188 190 191 191 189 185 183 185 190 192 191 192 199 214 229 230 222 217 219 222 220 208 187 169 175 187 196 206 214 217 222 231 238 238 232 226 224 226 230 233 239 247 255 264 276 288 292 293 300 311 314 302 294 299 306 306 298 288 282 282 285 289 296 301 303 301 295 286 282 294 306 314 324 345 8 9
184 184 185 183 179 176 173 170 168 170 177 185 188 185 184 189 192 193 195 200 197 188 196 220 232 225 215 215 217 210 195 187 180 178 189 200 210 219 227 234 238 242 240 232 226 224 227 235 241 246 254 265 276 291 304 306 307 318 331 330 317 305 307 310 308 304 298 292 289 291 294 299 301 300 294 282 271 274 292 307 313 326 1 9 4
129 160 178 174 165 169 175 173 172 176 182 184 182 182 187 193 195 199 206 207 195 184 191 209 215 204 196 199 205 209 208 202 191 181 186 199 209 218 225 234 241 243 237 229 224 224 230 239 244 248 259 276 288 298 307 312 316 328 339 341 336 325 318 315 311 306 301 296 295 296 298 301 301 297 284 272 270 278 299 316 313 324 355 352 345